EW2310 Weather Reports


Display with metric or nautical units.
time (UTC)temp
F
wind
direction
speed
MPH
gust
MPH
rain 1hr
in
rain 24hr
in
rain mn
in
humidity
%
barometer
mb
20260901014538 77 298 1.0 2.0 0.00 0.00 0.00 73 1014.5
20260901014038 77 300 0.0 3.0 0.00 0.00 0.00 73 1014.5
20260901013538 76 282 1.0 2.0 0.00 0.00 0.00 74 1014.5
20260901013038 76 252 0.0 2.0 0.00 0.00 0.00 74 1014.5
20260901012538 76 301 0.0 3.0 0.00 0.00 0.00 74 1014.6
20260901012038 76 309 0.0 5.0 0.00 0.00 0.00 75 1014.6
20260901011538 76 327 3.0 9.0 0.00 0.00 0.00 74 1014.7
20260901011038 77 324 1.0 8.0 0.00 0.00 0.00 74 1014.7
20260901010538 77 309 5.0 6.0 0.00 0.00 0.00 74 1014.6
20260901010038 77 313 3.0 8.0 0.00 0.00 0.00 74 1014.6
20260901005541 77 313 1.0 5.0 0.00 0.00 0.00 74 1014.6
20260901005038 77 295 2.0 5.0 0.00 0.00 0.00 74 1014.5
20260901004538 77 328 2.0 5.0 0.00 0.00 0.00 74 1014.4
20260901004038 77 327 1.0 5.0 0.00 0.00 0.00 74 1014.3
20260901003538 77 338 2.0 5.0 0.00 0.00 0.00 74 1014.4
20260901003038 77 319 3.0 10.0 0.00 0.00 0.00 74 1014.3
20260901002540 77 311 8.0 10.0 0.00 0.00 0.00 74 1014.2
20260901002041 77 319 5.0 13.0 0.00 0.00 0.00 74 1014.3
20260901001540 77 318 6.0 13.0 0.00 0.00 0.00 74 1014.3
20260901001038 77 0 3.0 11.0 0.00 0.00 0.00 74 1014.3
20260901000538 77 311 4.0 10.0 0.00 0.00 0.00 73 1014.3
20260901000038 77 309 3.0 9.0 0.00 0.00 0.00 73 1014.3
20260831235538 77 311 2.0 6.0 0.00 0.00 0.00 73 1014.3
20260831235038 77 317 2.0 8.0 0.00 0.00 0.00 73 1014.3
20260831234538 77 273 3.0 10.0 0.00 0.00 0.00 73 1014.3
20260831234038 77 330 4.0 8.0 0.00 0.00 0.00 73 1014.4
20260831233538 77 265 2.0 5.0 0.00 0.00 0.00 73 1014.3
20260831233041 77 335 4.0 4.0 0.00 0.00 0.00 73 1014.3
20260831232538 78 321 4.0 5.0 0.00 0.00 0.00 73 1014.3
20260831232038 78 326 2.0 9.0 0.00 0.00 0.00 73 1014.3
20260831231538 78 315 2.0 8.0 0.00 0.00 0.00 72 1014.4
20260831231038 78 317 5.0 7.0 0.00 0.00 0.00 72 1014.3
20260831230538 79 314 5.0 11.0 0.00 0.00 0.00 72 1014.3
20260831230038 79 316 3.0 11.0 0.00 0.00 0.00 72 1014.3
20260831225538 79 300 5.0 9.0 0.00 0.00 0.00 72 1014.2
20260831225038 79 257 1.0 5.0 0.00 0.00 0.00 72 1014.2
20260831224538 79 211 0.0 8.0 0.00 0.00 0.00 73 1014.2
20260831224038 79 238 1.0 9.0 0.00 0.00 0.00 74 1014.2
20260831223538 79 223 3.0 9.0 0.00 0.00 0.00 75 1014.2
20260831223038 79 254 3.0 6.0 0.00 0.00 0.00 75 1014.3
20260831222538 79 250 0.0 8.0 0.00 0.00 0.00 75 1014.2
20260831222038 79 18 1.0 7.0 0.00 0.00 0.00 75 1014.2
20260831221538 79 233 0.0 4.0 0.00 0.00 0.00 75 1014.0
20260831221038 79 318 1.0 7.0 0.00 0.00 0.00 76 1014.0
20260831220541 79 263 1.0 4.0 0.00 0.00 0.00 76 1014.0
20260831220038 79 29 1.0 6.0 0.00 0.00 0.00 77 1014.1
20260831215538 79 338 1.0 9.0 0.00 0.00 0.00 77 1014.0
20260831215038 79 311 2.0 6.0 0.00 0.00 0.00 78 1014.0
20260831214538 78 332 1.0 6.0 0.00 0.00 0.00 79 1014.0
20260831214038 79 315 2.0 7.0 0.00 0.00 0.00 79 1014.0
20260831213538 79 315 2.0 5.0 0.00 0.00 0.00 79 1013.9
20260831213038 79 301 0.0 8.0 0.00 0.00 0.00 79 1013.9
20260831212538 79 327 8.0 7.0 0.00 0.00 0.00 79 1013.9
20260831212038 79 320 0.0 7.0 0.00 0.00 0.00 79 1013.8
20260831211538 79 308 1.0 5.0 0.00 0.00 0.00 79 1013.9
20260831211038 79 296 1.0 4.0 0.00 0.00 0.00 79 1013.9
20260831210538 79 297 3.0 8.0 0.00 0.00 0.00 79 1013.8
20260831210041 79 299 0.0 4.0 0.00 0.00 0.00 80 1013.9
20260831205538 79 273 0.0 8.0 0.00 0.00 0.00 80 1013.9
20260831205038 79 286 0.0 8.0 0.00 0.00 0.00 80 1013.9
20260831204538 79 316 2.0 5.0 0.00 0.00 0.00 80 1013.8
20260831204038 79 306 4.0 5.0 0.00 0.00 0.00 79 1013.8
20260831203538 79 302 1.0 7.0 0.00 0.00 0.00 79 1013.7
20260831203038 79 315 4.0 10.0 0.00 0.00 0.00 79 1013.7
20260831202541 79 301 2.0 9.0 0.00 0.00 0.00 79 1013.6
20260831202041 79 308 1.0 8.0 0.00 0.00 0.00 78 1013.6
20260831201538 80 290 1.0 4.0 0.00 0.00 0.00 78 1013.6
20260831201038 80 294 1.0 6.0 0.00 0.00 0.00 77 1013.6
20260831200538 80 235 0.0 4.0 0.00 0.00 0.00 77 1013.6
20260831200038 80 94 0.0 4.0 0.00 0.00 0.00 77 1013.5
20260831195541 80 323 0.0 3.0 0.00 0.00 0.00 77 1013.5
20260831195038 80 298 1.0 4.0 0.00 0.00 0.00 76 1013.4
20260831194538 80 293 1.0 9.0 0.00 0.00 0.00 76 1013.3
20260831194038 80 320 0.0 6.0 0.00 0.00 0.00 76 1013.3
20260831193538 80 234 0.0 9.0 0.00 0.00 0.00 76 1013.3
20260831193038 80 264 1.0 8.0 0.00 0.00 0.00 76 1013.3
20260831192538 80 309 8.0 10.0 0.00 0.00 0.00 75 1013.3
20260831192038 80 263 1.0 6.0 0.00 0.00 0.00 75 1013.3
20260831191541 80 299 0.0 8.0 0.00 0.00 0.00 75 1013.2
20260831191038 80 254 2.0 4.0 0.00 0.00 0.00 75 1013.2
20260831190538 80 215 1.0 4.0 0.00 0.00 0.00 75 1013.1
20260831190038 81 321 2.0 6.0 0.00 0.00 0.00 74 1013.1
20260831185538 81 355 1.0 8.0 0.00 0.00 0.00 74 1013.1
20260831185038 81 318 2.0 6.0 0.00 0.00 0.00 74 1013.1
20260831184538 81 355 4.0 12.0 0.00 0.00 0.00 74 1013.1
20260831184041 81 311 2.0 8.0 0.00 0.00 0.00 73 1013.0
20260831183538 81 285 1.0 12.0 0.00 0.00 0.00 73 1012.9
20260831183038 81 331 4.0 9.0 0.00 0.00 0.00 72 1012.9
20260831182541 81 290 2.0 8.0 0.00 0.00 0.00 72 1012.9
20260831182041 81 312 6.0 9.0 0.00 0.00 0.00 72 1012.8
20260831181538 82 331 6.0 12.0 0.00 0.00 0.00 71 1012.7
20260831181038 82 327 5.0 10.0 0.00 0.00 0.00 70 1012.7
20260831180538 82 328 1.0 11.0 0.00 0.00 0.00 70 1012.7
20260831180038 82 326 2.0 9.0 0.00 0.00 0.00 69 1012.6
20260831175538 82 215 1.0 10.0 0.00 0.00 0.00 69 1012.6
20260831175041 83 321 9.0 10.0 0.00 0.00 0.00 68 1012.6
20260831174541 83 269 1.0 9.0 0.00 0.00 0.00 68 1012.6
20260831174038 83 312 1.0 9.0 0.00 0.00 0.00 68 1012.6
20260831173538 83 237 5.0 7.0 0.00 0.00 0.00 67 1012.5
20260831173038 83 312 3.0 9.0 0.00 0.00 0.00 66 1012.5
20260831172538 84 290 3.0 11.0 0.00 0.00 0.00 66 1012.4
20260831172038 84 295 2.0 10.0 0.00 0.00 0.00 66 1012.4
20260831171538 84 277 3.0 7.0 0.00 0.00 0.00 65 1012.4
20260831171038 84 158 3.0 8.0 0.00 0.00 0.00 65 1012.4
20260831170538 84 326 4.0 12.0 0.00 0.00 0.00 64 1012.2
20260831170038 85 327 4.0 12.0 0.00 0.00 0.00 63 1012.3
20260831165538 85 313 3.0 10.0 0.00 0.00 0.00 63 1012.3
20260831165038 85 267 4.0 13.0 0.00 0.00 0.00 62 1012.3
20260831164538 85 36 6.0 13.0 0.00 0.00 0.00 61 1012.3
20260831164038 86 73 1.0 13.0 0.00 0.00 0.00 62 1012.2
20260831163538 86 210 3.0 10.0 0.00 0.00 0.00 62 1012.3
20260831163038 86 144 3.0 10.0 0.00 0.00 0.00 61 1012.4
20260831162538 86 215 7.0 13.0 0.00 0.00 0.00 60 1012.4
20260831162038 86 344 2.0 11.0 0.00 0.00 0.00 60 1012.6
20260831161541 87 215 5.0 12.0 0.00 0.00 0.00 60 1012.7
20260831161038 87 262 8.0 13.0 0.00 0.00 0.00 60 1012.6
20260831160538 87 289 4.0 13.0 0.00 0.00 0.00 59 1012.5
20260831160038 87 154 7.0 10.0 0.00 0.00 0.00 59 1012.6
20260831155538 88 45 5.0 15.0 0.00 0.00 0.00 58 1012.6
20260831155038 88 229 4.0 13.0 0.00 0.00 0.00 57 1012.6
20260831154538 88 320 2.0 15.0 0.00 0.00 0.00 57 1012.7
20260831154038 88 296 5.0 12.0 0.00 0.00 0.00 57 1012.6
20260831153538 88 252 8.0 11.0 0.00 0.00 0.00 57 1012.7
20260831153038 89 47 4.0 13.0 0.00 0.00 0.00 56 1012.7
20260831152538 89 257 2.0 14.0 0.00 0.00 0.00 55 1012.7
20260831152041 89 348 3.0 15.0 0.00 0.00 0.00 54 1012.7
20260831151541 89 192 10.0 13.0 0.00 0.00 0.00 53 1012.6
20260831151038 89 346 3.0 12.0 0.00 0.00 0.00 52 1012.6
20260831150538 90 355 2.0 12.0 0.00 0.00 0.00 52 1012.6
20260831150038 90 157 2.0 10.0 0.00 0.00 0.00 54 1012.6
20260831145537 90 350 8.0 10.0 0.00 0.00 0.00 52 1012.6
20260831145038 90 336 5.0 9.0 0.00 0.00 0.00 55 1012.7
20260831144538 89 231 3.0 11.0 0.00 0.00 0.00 55 1012.7
20260831144040 89 165 5.0 10.0 0.00 0.00 0.00 55 1012.6
20260831143541 89 264 4.0 11.0 0.00 0.00 0.00 55 1012.7
20260831143038 89 50 2.0 9.0 0.00 0.00 0.00 55 1012.7
20260831142538 90 312 4.0 9.0 0.00 0.00 0.00 55 1012.7
20260831142041 90 242 3.0 12.0 0.00 0.00 0.00 54 1012.7
20260831141538 90 163 5.0 11.0 0.00 0.00 0.00 53 1012.6
20260831141037 90 355 3.0 8.0 0.00 0.00 0.00 51 1012.6
20260831140538 90 355 3.0 10.0 0.00 0.00 0.00 50 1012.6
20260831140038 90 263 10.0 10.0 0.00 0.00 0.00 50 1012.6
20260831135538 90 134 2.0 10.0 0.00 0.00 0.00 50 1012.6
20260831135038 90 165 2.0 8.0 0.00 0.00 0.00 48 1012.6
20260831134538 91 22 4.0 9.0 0.00 0.00 0.00 48 1012.6
20260831134038 91 33 4.0 9.0 0.00 0.00 0.00 45 1012.6
20260831133538 91 207 3.0 6.0 0.00 0.00 0.00 48 1012.7
20260831133038 90 216 3.0 9.0 0.00 0.00 0.00 45 1012.7
20260831132538 91 75 3.0 10.0 0.00 0.00 0.00 48 1012.7
20260831132037 91 40 3.0 8.0 0.00 0.00 0.00 47 1012.7
20260831131537 91 259 4.0 10.0 0.00 0.00 0.00 42 1012.7
20260831131038 91 42 4.0 14.0 0.00 0.00 0.00 42 1012.7
20260831130538 92 328 3.0 9.0 0.00 0.00 0.00 40 1012.8
20260831130038 92 196 1.0 6.0 0.00 0.00 0.00 43 1012.8
20260831125537 93 338 1.0 9.0 0.00 0.00 0.00 41 1012.6
20260831125038 93 154 3.0 7.0 0.00 0.00 0.00 41 1012.6
20260831124537 93 311 3.0 10.0 0.00 0.00 0.00 40 1012.6
20260831124038 93 242 1.0 8.0 0.00 0.00 0.00 40 1012.5
20260831123538 93 43 2.0 8.0 0.00 0.00 0.00 40 1012.5
20260831123037 93 238 3.0 8.0 0.00 0.00 0.00 39 1012.6
20260831122538 93 202 4.0 5.0 0.00 0.00 0.00 40 1012.6
20260831122038 93 355 3.0 8.0 0.00 0.00 0.00 41 1012.6
20260831121537 93 279 2.0 8.0 0.00 0.00 0.00 40 1012.4
20260831121038 92 200 4.0 12.0 0.00 0.00 0.00 42 1012.5
20260831120538 92 200 3.0 6.0 0.00 0.00 0.00 42 1012.5
20260831120040 92 331 3.0 9.0 0.00 0.00 0.00 42 1012.5
20260831115537 92 0 3.0 9.0 0.00 0.00 0.00 41 1012.6
20260831115038 92 33 3.0 6.0 0.00 0.00 0.00 41 1012.7
20260831114538 92 209 3.0 8.0 0.00 0.00 0.00 39 1012.8
20260831114038 92 59 4.0 8.0 0.00 0.00 0.00 40 1012.8
20260831113538 92 29 2.0 9.0 0.00 0.00 0.00 40 1012.7
20260831113038 92 266 3.0 8.0 0.00 0.00 0.00 40 1012.8
20260831112537 92 15 3.0 7.0 0.00 0.00 0.00 40 1012.8
20260831112037 91 171 2.0 5.0 0.00 0.00 0.00 42 1012.8
20260831111537 91 99 3.0 8.0 0.00 0.00 0.00 43 1012.9
20260831111037 91 155 3.0 8.0 0.00 0.00 0.00 43 1013.0
20260831110538 91 41 2.0 7.0 0.00 0.00 0.00 41 1013.0
20260831110040 91 17 2.0 7.0 0.00 0.00 0.00 42 1013.0
20260831105538 91 66 4.0 8.0 0.00 0.00 0.00 42 1013.1
20260831105038 91 343 2.0 7.0 0.00 0.00 0.00 41 1013.0
20260831104537 91 132 2.0 10.0 0.00 0.00 0.00 42 1013.0
20260831104037 91 141 3.0 9.0 0.00 0.00 0.00 43 1013.0
20260831103538 91 258 2.0 6.0 0.00 0.00 0.00 45 1013.0
20260831103037 90 200 5.0 8.0 0.00 0.00 0.00 45 1013.1
20260831102537 90 325 1.0 8.0 0.00 0.00 0.00 46 1013.1
20260831102041 90 336 3.0 7.0 0.00 0.00 0.00 45 1013.2
20260831101538 90 313 1.0 5.0 0.00 0.00 0.00 45 1013.2
20260831101037 90 216 1.0 5.0 0.00 0.00 0.00 46 1013.3
20260831100541 90 142 3.0 6.0 0.00 0.00 0.00 45 1013.3
20260831100037 90 76 3.0 7.0 0.00 0.00 0.00 45 1013.3
20260831095537 91 75 1.0 6.0 0.00 0.00 0.00 44 1013.3
20260831095038 91 186 1.0 7.0 0.00 0.00 0.00 43 1013.3
20260831094537 91 192 3.0 5.0 0.00 0.00 0.00 36 1013.2
20260831094037 91 317 2.0 10.0 0.00 0.00 0.00 34 1013.2
20260831093538 91 18 1.0 9.0 0.00 0.00 0.00 36 1013.1
20260831093041 90 336 3.0 8.0 0.00 0.00 0.00 38 1013.2
20260831092537 89 11 4.0 14.0 0.00 0.00 0.00 37 1013.1
20260831092037 89 335 2.0 11.0 0.00 0.00 0.00 37 1013.1
20260831091538 89 327 6.0 13.0 0.00 0.00 0.00 36 1013.1
20260831091038 89 295 2.0 13.0 0.00 0.00 0.00 36 1013.1
20260831090538 88 345 11.0 15.0 0.00 0.00 0.00 39 1013.1
20260831090037 88 315 3.0 15.0 0.00 0.00 0.00 40 1013.1
20260831085538 88 342 5.0 12.0 0.00 0.00 0.00 41 1013.0
20260831085037 87 318 5.0 11.0 0.00 0.00 0.00 45 1013.0
20260831084538 87 329 8.0 11.0 0.00 0.00 0.00 46 1013.0
20260831084040 86 10 5.0 14.0 0.00 0.00 0.00 49 1012.9
20260831083538 86 322 8.0 13.0 0.00 0.00 0.00 50 1012.9
20260831083037 86 315 5.0 11.0 0.00 0.00 0.00 51 1012.8
20260831082537 86 304 3.0 14.0 0.00 0.00 0.00 52 1012.8
20260831082038 85 289 8.0 12.0 0.00 0.00 0.00 54 1012.7
20260831081538 85 311 9.0 15.0 0.00 0.00 0.00 56 1012.8
20260831081037 85 321 5.0 13.0 0.00 0.00 0.00 56 1012.7
20260831080538 85 350 3.0 9.0 0.00 0.00 0.00 59 1012.6
20260831080037 84 336 5.0 10.0 0.00 0.00 0.00 60 1012.7
20260831075538 84 331 5.0 10.0 0.00 0.00 0.00 60 1012.6
20260831075037 84 5 5.0 10.0 0.00 0.00 0.00 62 1012.6
20260831074537 83 355 3.0 10.0 0.00 0.00 0.00 62 1012.6
20260831074038 83 340 11.0 11.0 0.00 0.00 0.00 64 1012.5
20260831073538 83 321 6.0 9.0 0.00 0.00 0.00 65 1012.5
20260831073038 82 345 8.0 12.0 0.00 0.00 0.00 65 1012.6
20260831072538 82 333 5.0 9.0 0.00 0.00 0.00 66 1012.5
20260831072038 82 17 9.0 9.0 0.00 0.00 0.00 68 1012.5
20260831071537 81 302 5.0 8.0 0.00 0.00 0.00 70 1012.5
20260831071037 80 332 6.0 11.0 0.00 0.00 0.00 70 1012.5
20260831070538 80 340 4.0 10.0 0.00 0.00 0.00 71 1012.5
20260831070041 80 338 4.0 9.0 0.00 0.00 0.00 71 1012.5
20260831065537 79 328 4.0 10.0 0.00 0.00 0.00 72 1012.5
20260831065038 79 342 10.0 13.0 0.00 0.00 0.00 72 1012.6
20260831064537 79 336 9.0 10.0 0.00 0.00 0.00 73 1012.5
20260831064037 78 13 3.0 8.0 0.00 0.00 0.00 74 1012.5
20260831063537 78 321 4.0 12.0 0.00 0.00 0.00 75 1012.5
20260831063038 78 319 8.0 11.0 0.00 0.00 0.00 75 1012.5
20260831062538 77 306 4.0 12.0 0.00 0.00 0.00 75 1012.5
20260831062040 77 346 4.0 12.0 0.00 0.00 0.00 76 1012.4
20260831061537 77 355 8.0 10.0 0.00 0.00 0.00 76 1012.5
20260831061038 76 323 6.0 9.0 0.00 0.00 0.00 77 1012.4
20260831060537 76 329 4.0 9.0 0.00 0.00 0.00 77 1012.6
20260831060038 76 311 2.0 8.0 0.00 0.00 0.00 77 1012.6
20260831055541 76 331 4.0 6.0 0.00 0.00 0.00 77 1012.5
20260831055037 75 332 3.0 8.0 0.00 0.00 0.00 78 1012.5
20260831054541 75 340 6.0 10.0 0.00 0.00 0.00 77 1012.3
20260831054037 75 333 1.0 8.0 0.00 0.00 0.00 78 1012.3
20260831053540 75 341 5.0 8.0 0.00 0.00 0.00 78 1012.3
20260831053037 75 333 3.0 10.0 0.00 0.00 0.00 78 1012.2
20260831052540 75 337 3.0 8.0 0.00 0.00 0.00 79 1012.2
20260831052038 75 339 3.0 8.0 0.00 0.00 0.00 79 1012.3
20260831051541 75 309 2.0 8.0 0.00 0.00 0.00 78 1012.3
20260831051038 75 322 2.0 7.0 0.00 0.00 0.00 78 1012.3
20260831050538 75 326 2.0 3.0 0.00 0.00 0.00 79 1012.3
20260831050037 75 311 1.0 3.0 0.00 0.00 0.00 79 1012.3
20260831045537 75 278 2.0 2.0 0.00 0.00 0.00 80 1012.2
20260831045038 74 239 2.0 2.0 0.00 0.00 0.00 81 1012.2
20260831044541 74 157 0.0 2.0 0.00 0.00 0.00 81 1012.2
20260831044040 74 157 0.0 1.0 0.00 0.00 0.00 81 1012.2
20260831043537 75 157 1.0 2.0 0.00 0.00 0.00 81 1012.1
20260831043037 75 157 1.0 1.0 0.00 0.00 0.00 81 1012.2
20260831042537 75 157 0.0 1.0 0.00 0.00 0.00 81 1012.1
20260831042038 74 157 0.0 2.0 0.00 0.00 0.00 81 1012.2
20260831041541 74 157 1.0 1.0 0.00 0.00 0.00 81 1012.1
20260831041040 75 157 1.0 1.0 0.00 0.00 0.00 80 1012.2
20260831040538 75 157 0.0 1.0 0.00 0.00 0.00 80 1012.2
20260831040037 75 157 1.0 1.0 0.00 0.00 0.00 80 1012.2
20260831035538 75 157 1.0 3.0 0.00 0.00 0.00 80 1012.2
20260831035040 75 157 2.0 3.0 0.00 0.00 0.00 80 1012.1
20260831034538 75 157 2.0 2.0 0.00 0.00 0.00 79 1012.2
20260831034038 75 157 0.0 2.0 0.00 0.00 0.00 79 1012.1
20260831033537 75 157 1.0 1.0 0.00 0.00 0.00 79 1012.1
20260831033038 75 157 0.0 0.0 0.00 0.00 0.00 79 1012.1
20260831032537 75 157 0.0 1.0 0.00 0.00 0.00 79 1012.2
20260831032037 75 157 1.0 2.0 0.00 0.00 0.00 79 1012.1
20260831031537 76 157 1.0 2.0 0.00 0.00 0.00 79 1012.1
20260831031040 76 157 0.0 2.0 0.00 0.00 0.00 78 1012.1
20260831030538 76 157 2.0 5.0 0.00 0.00 0.00 77 1012.1
20260831030038 77 161 4.0 4.0 0.00 0.00 0.00 75 1012.1
20260831025537 78 263 0.0 1.0 0.00 0.00 0.00 75 1012.2
20260831025037 78 263 0.0 0.0 0.00 0.00 0.00 75 1012.2
20260831024538 78 263 0.0 0.0 0.00 0.00 0.00 75 1012.3
20260831024038 78 263 0.0 0.0 0.00 0.00 0.00 75 1012.2
20260831023537 78 263 0.0 0.0 0.00 0.00 0.00 75 1012.2
20260831023040 78 263 0.0 1.0 0.00 0.00 0.00 75 1012.2
20260831022540 78 267 0.0 1.0 0.00 0.00 0.00 75 1012.2
20260831022038 78 267 0.0 1.0 0.00 0.00 0.00 75 1012.2
20260831021539 78 323 0.0 1.0 0.00 0.00 0.00 75 1012.3
20260831021038 78 323 0.0 1.0 0.00 0.00 0.00 75 1012.3
20260831020538 78 311 0.0 0.0 0.00 0.00 0.00 74 1012.3
20260831020040 78 311 0.0 1.0 0.00 0.00 0.00 74 1012.3
20260831015538 79 298 0.0 1.0 0.00 0.00 0.00 74 1012.2
20260831015040 79 296 0.0 1.0 0.00 0.00 0.00 74 1012.4